Regional Weather Roundup
Issued by NWS

Home | Current Version | Previous Version | Text Only | Print | Product List | Glossary On
Versions: 1 2 3 4 5 6 7 8 9 10 11 12 13 14 15 16 17 18 19 20 21 22 23 24 25 26 27 28 29 30 31 32 33 34 35 36 37 38 39 40 41 42 43 44 45 46 47 48 49 50
495
ASUS44 KMEG 260200
RWRTN
TENNESSEE HOURLY STATE WEATHER ROUNDUP
NATIONAL WEATHER SERVICE MEMPHIS TN
800 PM CST SUN FEB 25 2018

TNZ002-004-019-021-049-052-054-088>092-260300-
WEST TENNESSEE

CITY           SKY/WX    TMP DP  RH WIND       PRES   REMARKS
MEMPHIS INTL   CLOUDY    51  42  71 E7        30.11R
NWS MEMPHIS      N/A     50 N/A N/A MISG        N/A
JACKSON        FAIR      49  43  80 CALM      30.11F
DYERSBURG      FAIR      48  40  73 NE6       30.13S
$$

TNZ008-025-027-028-033-062-065-066-260300-
NORTH MIDDLE TENNESSEE

CITY           SKY/WX    TMP DP  RH WIND       PRES   REMARKS
NASHVILLE      CLOUDY    52  44  74 E3        30.14R
CLARKSVILLE    FAIR      47  40  76 N6        30.14S
SMYRNA         FAIR      51  46  83 CALM      30.16R
CROSSVILLE     MOCLDY    49  46  90 NW5       30.14R
$$

TNZ061-075-076-078-094-096-097-260300-
SOUTH MIDDLE TENNESSEE

CITY           SKY/WX    TMP DP  RH WIND       PRES   REMARKS
$$

TNZ017-018-042-046-047-260300-
NORTHEAST TENNESSEE

CITY           SKY/WX    TMP DP  RH WIND       PRES   REMARKS
TRI CITIES     CLOUDY    53  51  93 SW6       30.14S
$$

TNZ012-013-036-069-073-074-260300-
CENTRAL EAST TENNESSEE

CITY           SKY/WX    TMP DP  RH WIND       PRES   REMARKS
KNOXVILLE      CLOUDY    55  51  86 SW9       30.13F
OAK RIDGE      CLOUDY    55  50  83 CALM      30.14F
$$

TNZ083-085-099-260300-
SOUTHEAST TENNESSEE

CITY           SKY/WX    TMP DP  RH WIND       PRES   REMARKS
CHATTANOOGA    MOCLDY    56  51  84 S5        30.16R
$$

SKY/WX REPORTED AS FAIR MEANS FEW OR NO CLOUDS BELOW
12 THOUSAND FEET.





USA.gov is the U.S. government's official web portal to all federal, state and local government web resources and services.